Time,TemperatureF,DewpointF,PressureIn,WindDirection,WindDirectionDegrees,WindSpeedMPH,WindSpeedGustMPH,Humidity,HourlyPrecipIn,Conditions,Clouds,dailyrainin,SolarRadiationWatts/m^2,SoftwareType,DateUTC
2013-05-10 00:01:00,47.0,46.0,-100.00,West,277,0.0,0.0,97,0.00,,,0.00,0.000000,,2013-05-10 07:01:00,
2013-05-10 00:11:00,47.0,46.0,-100.00,West,277,0.0,0.0,97,0.00,,,0.00,0.000000,,2013-05-10 07:11:00,
2013-05-10 00:22:00,47.0,46.0,-100.00,West,277,0.0,0.0,97,0.00,,,0.00,0.000000,,2013-05-10 07:22:00,
2013-05-10 00:31:00,47.0,46.0,-100.00,West,277,0.0,0.0,97,0.00,,,0.00,0.000000,,2013-05-10 07:31:00,
2013-05-10 00:52:00,47.0,46.0,-100.00,West,269,0.0,0.0,98,0.00,,,0.00,0.000000,,2013-05-10 07:52:00,
2013-05-10 01:02:00,47.0,46.0,-100.00,West,269,0.0,0.0,98,0.00,,,0.00,0.000000,,2013-05-10 08:02:00,
2013-05-10 01:12:00,47.0,46.0,-100.00,West,269,0.0,0.0,98,0.00,,,0.00,0.000000,,2013-05-10 08:12:00,
2013-05-10 01:21:00,47.0,46.0,-100.00,West,269,0.0,0.0,98,0.00,,,0.00,0.000000,,2013-05-10 08:21:00,
2013-05-10 01:32:00,47.0,46.0,-100.00,West,269,0.0,0.0,98,0.00,,,0.00,0.000000,,2013-05-10 08:32:00,
2013-05-10 01:52:00,47.0,47.0,-100.00,West,278,0.0,0.0,99,0.00,,,0.00,0.000000,,2013-05-10 08:52:00,
2013-05-10 02:01:00,47.0,47.0,-100.00,West,278,0.0,0.0,99,0.00,,,0.00,0.000000,,2013-05-10 09:01:00,
2013-05-10 02:11:00,47.0,47.0,-100.00,West,278,0.0,0.0,99,0.00,,,0.00,0.000000,,2013-05-10 09:11:00,
2013-05-10 02:21:00,47.0,47.0,-100.00,West,278,0.0,0.0,99,0.00,,,0.00,0.000000,,2013-05-10 09:21:00,
2013-05-10 02:32:00,47.0,47.0,-100.00,West,278,0.0,0.0,99,0.00,,,0.00,0.000000,,2013-05-10 09:32:00,
2013-05-10 02:52:00,47.0,47.0,-100.00,West,267,0.0,0.0,99,0.00,,,0.00,1.000000,,2013-05-10 09:52:00,
2013-05-10 03:02:00,47.0,47.0,-100.00,West,267,0.0,0.0,99,0.00,,,0.00,1.000000,,2013-05-10 10:02:00,
2013-05-10 03:12:00,47.0,47.0,-100.00,West,267,0.0,0.0,99,0.00,,,0.00,1.000000,,2013-05-10 10:12:00,
2013-05-10 03:23:00,47.0,47.0,-100.00,West,267,0.0,0.0,99,0.00,,,0.00,1.000000,,2013-05-10 10:23:00,
2013-05-10 03:32:00,47.0,47.0,-100.00,West,267,0.0,0.0,99,0.00,,,0.00,1.000000,,2013-05-10 10:32:00,
2013-05-10 03:52:00,47.0,47.0,-100.00,WNW,283,0.0,0.0,99,0.00,,,0.00,1.000000,,2013-05-10 10:52:00,
2013-05-10 04:02:00,47.0,47.0,-100.00,WNW,283,0.0,0.0,99,0.00,,,0.00,1.000000,,2013-05-10 11:02:00,
2013-05-10 04:12:00,47.0,47.0,-100.00,WNW,283,0.0,0.0,99,0.00,,,0.00,1.000000,,2013-05-10 11:12:00,
2013-05-10 04:21:00,47.0,47.0,-100.00,WNW,283,0.0,0.0,99,0.00,,,0.00,1.000000,,2013-05-10 11:21:00,
2013-05-10 04:31:00,47.0,47.0,-100.00,WNW,283,0.0,0.0,99,0.00,,,0.00,1.000000,,2013-05-10 11:31:00,
2013-05-10 06:52:00,47.0,47.0,-100.00,West,279,0.0,0.0,100,-99.99,,,0.00,5.000000,,2013-05-10 13:52:00,
2013-05-10 07:02:00,47.0,47.0,-100.00,West,279,0.0,0.0,100,-99.99,,,0.00,5.000000,,2013-05-10 14:02:00,
2013-05-10 07:11:00,47.0,47.0,-100.00,West,279,0.0,0.0,100,-99.99,,,0.00,5.000000,,2013-05-10 14:11:00,
2013-05-10 07:21:00,47.0,47.0,-100.00,West,279,0.0,0.0,100,-99.99,,,0.00,5.000000,,2013-05-10 14:21:00,
2013-05-10 07:32:00,47.0,47.0,-100.00,West,279,0.0,0.0,100,-99.99,,,0.00,5.000000,,2013-05-10 14:32:00,
2013-05-10 07:52:00,48.0,48.0,-100.00,West,277,0.0,0.0,100,0.00,,,0.00,63.000000,,2013-05-10 14:52:00,
2013-05-10 08:01:00,48.0,48.0,-100.00,West,277,0.0,0.0,100,0.00,,,0.00,63.000000,,2013-05-10 15:01:00,
2013-05-10 08:20:00,-999.0,-99.9,-100.00,West,277,0.0,0.0,100,0.00,,,0.00,63.000000,,2013-05-10 15:20:00,
2013-05-10 08:32:00,48.0,48.0,-100.00,West,277,0.0,0.0,100,0.00,,,0.00,63.000000,,2013-05-10 15:32:00,
2013-05-10 08:53:00,52.0,52.0,-100.00,SSW,209,0.0,0.0,100,0.00,,,0.00,228.000000,,2013-05-10 15:53:00,
2013-05-10 09:02:00,52.0,52.0,-100.00,SSW,209,0.0,0.0,100,0.00,,,0.00,228.000000,,2013-05-10 16:02:00,
2013-05-10 09:12:00,52.0,52.0,-100.00,SSW,209,0.0,0.0,100,0.00,,,0.00,228.000000,,2013-05-10 16:12:00,
2013-05-10 09:23:00,52.0,52.0,-100.00,SSW,209,0.0,0.0,100,0.00,,,0.00,228.000000,,2013-05-10 16:23:00,
2013-05-10 09:32:00,52.0,52.0,-100.00,SSW,209,0.0,0.0,100,0.00,,,0.00,228.000000,,2013-05-10 16:32:00,
2013-05-10 09:52:00,55.0,54.0,-100.00,West,262,0.0,0.0,97,0.00,,,0.00,467.000000,,2013-05-10 16:52:00,
2013-05-10 10:02:00,55.0,54.0,-100.00,West,262,0.0,0.0,97,0.00,,,0.00,467.000000,,2013-05-10 17:02:00,
2013-05-10 10:12:00,55.0,54.0,-100.00,West,262,0.0,0.0,97,0.00,,,0.00,467.000000,,2013-05-10 17:12:00,
2013-05-10 10:21:00,55.0,54.0,-100.00,West,262,0.0,0.0,97,0.00,,,0.00,467.000000,,2013-05-10 17:21:00,
2013-05-10 10:32:00,55.0,54.0,-100.00,West,262,0.0,0.0,97,0.00,,,0.00,467.000000,,2013-05-10 17:32:00,
2013-05-10 10:33:00,61.0,51.0,-100.00,West,268,5.0,13.0,69,0.00,,,0.00,659.000000,,2013-05-10 17:33:00,
2013-05-10 10:52:00,61.0,51.0,-100.00,West,268,5.0,13.0,69,0.00,,,0.00,659.000000,,2013-05-10 17:52:00,
2013-05-10 11:10:00,-999.0,-99.9,-100.00,West,268,5.0,13.0,69,0.00,,,0.00,659.000000,,2013-05-10 18:10:00,
2013-05-10 11:21:00,61.0,51.0,-100.00,West,268,5.0,13.0,69,0.00,,,0.00,659.000000,,2013-05-10 18:21:00,
2013-05-10 11:54:00,68.0,52.0,-100.00,SSW,211,3.0,9.0,56,0.00,,,0.00,804.000000,,2013-05-10 18:54:00,
2013-05-10 12:02:00,68.0,52.0,-100.00,SSW,211,3.0,9.0,56,0.00,,,0.00,804.000000,,2013-05-10 19:02:00,
2013-05-10 12:11:00,68.0,52.0,-100.00,SSW,211,3.0,9.0,56,0.00,,,0.00,804.000000,,2013-05-10 19:11:00,
2013-05-10 12:21:00,68.0,52.0,-100.00,SSW,211,3.0,9.0,56,0.00,,,0.00,804.000000,,2013-05-10 19:21:00,
2013-05-10 12:32:00,68.0,52.0,-100.00,SSW,211,3.0,9.0,56,0.00,,,0.00,804.000000,,2013-05-10 19:32:00,
2013-05-10 12:52:00,72.0,52.0,-100.00,SSW,212,0.0,4.0,50,0.00,,,0.00,904.000000,,2013-05-10 19:52:00,
2013-05-10 13:01:00,72.0,52.0,-100.00,SSW,212,0.0,4.0,50,0.00,,,0.00,904.000000,,2013-05-10 20:01:00,
2013-05-10 13:11:00,72.0,52.0,-100.00,SSW,212,0.0,4.0,50,0.00,,,0.00,904.000000,,2013-05-10 20:11:00,
2013-05-10 13:21:00,72.0,52.0,-100.00,SSW,212,0.0,4.0,50,0.00,,,0.00,904.000000,,2013-05-10 20:21:00,
2013-05-10 13:31:00,72.0,52.0,-100.00,SSW,212,0.0,4.0,50,0.00,,,0.00,904.000000,,2013-05-10 20:31:00,
2013-05-10 13:52:00,69.0,52.0,-100.00,West,274,11.0,18.0,54,0.00,,,0.00,949.000000,,2013-05-10 20:52:00,
2013-05-10 14:01:00,69.0,52.0,-100.00,West,274,11.0,18.0,54,0.00,,,0.00,949.000000,,2013-05-10 21:01:00,
2013-05-10 14:11:00,69.0,52.0,-100.00,West,274,11.0,18.0,54,0.00,,,0.00,949.000000,,2013-05-10 21:11:00,
2013-05-10 14:24:00,69.0,52.0,-100.00,West,274,11.0,18.0,54,0.00,,,0.00,949.000000,,2013-05-10 21:24:00,
2013-05-10 14:32:00,69.0,52.0,-100.00,West,274,11.0,18.0,54,0.00,,,0.00,949.000000,,2013-05-10 21:32:00,
2013-05-10 14:52:00,68.0,50.0,-100.00,WNW,282,11.0,19.0,53,0.00,,,0.00,931.000000,,2013-05-10 21:52:00,
2013-05-10 15:02:00,68.0,50.0,-100.00,WNW,282,11.0,19.0,53,0.00,,,0.00,931.000000,,2013-05-10 22:02:00,
2013-05-10 15:12:00,68.0,50.0,-100.00,WNW,282,11.0,19.0,53,0.00,,,0.00,931.000000,,2013-05-10 22:12:00,
2013-05-10 15:22:00,68.0,50.0,-100.00,WNW,282,11.0,19.0,53,0.00,,,0.00,931.000000,,2013-05-10 22:22:00,
2013-05-10 15:32:00,68.0,50.0,-100.00,WNW,282,11.0,19.0,53,0.00,,,0.00,931.000000,,2013-05-10 22:32:00,
2013-05-10 15:52:00,64.0,49.0,-100.00,West,281,12.0,19.0,58,0.00,,,-99.99,870.000000,,2013-05-10 22:52:00,
2013-05-10 16:02:00,64.0,49.0,-100.00,West,281,12.0,19.0,58,0.00,,,-99.99,870.000000,,2013-05-10 23:02:00,
2013-05-10 16:12:00,64.0,49.0,-100.00,West,281,12.0,19.0,58,0.00,,,-99.99,870.000000,,2013-05-10 23:12:00,
2013-05-10 16:22:00,64.0,49.0,-100.00,West,281,12.0,19.0,58,0.00,,,-99.99,870.000000,,2013-05-10 23:22:00,
2013-05-10 16:32:00,64.0,49.0,-100.00,West,281,12.0,19.0,58,0.00,,,-99.99,870.000000,,2013-05-10 23:32:00,
2013-05-10 16:52:00,59.0,48.0,-100.00,WNW,288,12.0,22.0,68,0.00,,,0.00,752.000000,,2013-05-10 23:52:00,
2013-05-10 17:01:00,59.0,48.0,-100.00,WNW,288,12.0,22.0,68,0.00,,,0.00,752.000000,,2013-05-11 00:01:00,
2013-05-10 17:11:00,59.0,48.0,-100.00,WNW,288,12.0,22.0,68,0.00,,,0.00,752.000000,,2013-05-11 00:11:00,
2013-05-10 17:21:00,59.0,48.0,-100.00,WNW,288,12.0,22.0,68,0.00,,,0.00,752.000000,,2013-05-11 00:21:00,
2013-05-10 17:32:00,59.0,48.0,-100.00,WNW,288,12.0,22.0,68,0.00,,,0.00,752.000000,,2013-05-11 00:32:00,
2013-05-10 17:52:00,63.0,48.0,-100.00,SW,225,4.0,16.0,59,0.00,,,-99.99,590.000000,,2013-05-11 00:52:00,
2013-05-10 18:01:00,63.0,48.0,-100.00,SW,225,4.0,16.0,59,0.00,,,-99.99,590.000000,,2013-05-11 01:01:00,
2013-05-10 18:11:00,63.0,48.0,-100.00,SW,225,4.0,16.0,59,0.00,,,-99.99,590.000000,,2013-05-11 01:11:00,
2013-05-10 18:21:00,63.0,48.0,-100.00,SW,225,4.0,16.0,59,0.00,,,-99.99,590.000000,,2013-05-11 01:21:00,
2013-05-10 18:31:00,63.0,48.0,-100.00,SW,225,4.0,16.0,59,0.00,,,-99.99,590.000000,,2013-05-11 01:31:00,
2013-05-10 18:52:00,57.0,46.0,-100.00,NW,321,8.0,21.0,67,0.00,,,0.00,397.000000,,2013-05-11 01:52:00,
2013-05-10 19:02:00,57.0,46.0,-100.00,NW,321,8.0,21.0,67,0.00,,,0.00,397.000000,,2013-05-11 02:02:00,
2013-05-10 19:11:00,57.0,46.0,-100.00,NW,321,8.0,21.0,67,0.00,,,0.00,397.000000,,2013-05-11 02:11:00,
2013-05-10 19:21:00,57.0,46.0,-100.00,NW,321,8.0,21.0,67,0.00,,,0.00,397.000000,,2013-05-11 02:21:00,
2013-05-10 19:32:00,57.0,46.0,-100.00,NW,321,8.0,21.0,67,0.00,,,0.00,397.000000,,2013-05-11 02:32:00,
2013-05-10 19:52:00,54.0,47.0,-100.00,NW,317,2.0,12.0,77,0.00,,,0.00,195.000000,,2013-05-11 02:52:00,
2013-05-10 20:01:00,54.0,47.0,-100.00,NW,317,2.0,12.0,77,0.00,,,0.00,195.000000,,2013-05-11 03:01:00,
2013-05-10 20:11:00,54.0,47.0,-100.00,NW,317,2.0,12.0,77,0.00,,,0.00,195.000000,,2013-05-11 03:11:00,
2013-05-10 20:21:00,54.0,47.0,-100.00,NW,317,2.0,12.0,77,0.00,,,0.00,195.000000,,2013-05-11 03:21:00,
2013-05-10 20:32:00,54.0,47.0,-100.00,NW,317,2.0,12.0,77,0.00,,,0.00,195.000000,,2013-05-11 03:32:00,
2013-05-10 20:53:00,51.0,47.0,-100.00,NNW,336,0.0,12.0,87,0.00,,,0.00,21.000000,,2013-05-11 03:53:00,
2013-05-10 21:02:00,51.0,47.0,-100.00,NNW,336,0.0,12.0,87,0.00,,,0.00,21.000000,,2013-05-11 04:02:00,
2013-05-10 21:12:00,51.0,47.0,-100.00,NNW,336,0.0,12.0,87,0.00,,,0.00,21.000000,,2013-05-11 04:12:00,
2013-05-10 21:23:00,51.0,47.0,-100.00,NNW,336,0.0,12.0,87,0.00,,,0.00,21.000000,,2013-05-11 04:23:00,
2013-05-10 21:32:00,51.0,47.0,-100.00,NNW,336,0.0,12.0,87,0.00,,,0.00,21.000000,,2013-05-11 04:32:00,
2013-05-10 21:52:00,54.0,47.0,-100.00,SE,142,0.0,10.0,76,0.00,,,0.00,1.000000,,2013-05-11 04:52:00,
2013-05-10 22:02:00,54.0,47.0,-100.00,SE,142,0.0,10.0,76,0.00,,,0.00,1.000000,,2013-05-11 05:02:00,
2013-05-10 22:12:00,54.0,47.0,-100.00,SE,142,0.0,10.0,76,0.00,,,0.00,1.000000,,2013-05-11 05:12:00,
2013-05-10 22:21:00,54.0,47.0,-100.00,SE,142,0.0,10.0,76,0.00,,,0.00,1.000000,,2013-05-11 05:21:00,
2013-05-10 22:32:00,54.0,47.0,-100.00,SE,142,0.0,10.0,76,0.00,,,0.00,1.000000,,2013-05-11 05:32:00,
2013-05-10 22:52:00,57.0,48.0,-100.00,South,181,0.0,0.0,73,0.00,,,0.00,1.000000,,2013-05-11 05:52:00,
2013-05-10 23:02:00,57.0,48.0,-100.00,South,181,0.0,0.0,73,0.00,,,0.00,1.000000,,2013-05-11 06:02:00,
2013-05-10 23:12:00,57.0,48.0,-100.00,South,181,0.0,0.0,73,0.00,,,0.00,1.000000,,2013-05-11 06:12:00,
2013-05-10 23:21:00,57.0,48.0,-100.00,South,181,0.0,0.0,73,0.00,,,0.00,1.000000,,2013-05-11 06:21:00,
2013-05-10 23:31:00,57.0,48.0,-100.00,South,181,0.0,0.0,73,0.00,,,0.00,1.000000,,2013-05-11 06:31:00,
2013-05-10 23:52:00,58.0,47.0,-100.00,South,191,0.0,0.0,66,0.00,,,0.00,1.000000,,2013-05-11 06:52:00,